Content
SEND FEEDBACK

Daily
Averages
Monthly
Summary
United States of America

NEW YORK, NEW YORK


Home > North America > United States > New York
Elevation: 131 feet     Latitude: 40 47N     Longitude: 073 58W

WEATHER
 
SELECT A DAY
Number of Records: 153,133;   Date Range: 11/1/95 - 12/23/14
 
SHARE

PRINT THIS DATA

[ ← Previous Day ]
WEATHER ALMANAC - APRIL 29, 2013
[ Next Day → ]
[ °C ]   °F
Weather ElementAverageHighLow
Temperature54.6 °F57 °F (5:51 pm)53.1 °F (6:51 am)
Dewpoint45.8 °F50 °F (2:51 pm)43 °F (7:51 pm)
Humidity72.4 %86 % (2:51 pm)62 % (7:51 pm)
Barometer30.22 in30.25 in (10:16 pm)30.19 in (3:51 pm)
Wind Speed4.8 mph8.1 mph (3:51 am)
Wind Gust19.6 mph (11:51 am)
Weather ElementAverage
Visibility9.6 mi
Wind DirectionNE (46 °)

Weather ElementTotal
Precipitation0.04 in
Heating Degree Days10 (Base 65)
Growing Degree Days5.1 (Base 50)
Averaged from 25 records on April 29, 2013
WEATHER CONDITIONS BREAKOUT
WIND DIRECTION BREAKOUT
WEATHER BY HOUR - APRIL 29, 2013
[ °C ]   °F
Local TimeTemperatureDewpointHumidityBarometerVisibilityWind DirectionWind SpeedGust SpeedPrecipitationEventsConditions
1:51 AM55.9 °F44.1 °F64 %30.22 in10.0 miSouth (190°)5.8 mphOvercast
2:51 AM55.9 °F45.0 °F67 %30.21 in10.0 miVariable4.6 mphOvercast
3:51 AM55.0 °F45.0 °F69 %30.21 in10.0 miSouth (180°)8.1 mphOvercast
4:51 AM55.0 °F44.1 °F67 %30.21 in10.0 miSouth (190°)6.9 mphOvercast
5:51 AM54.0 °F45.0 °F72 %30.22 in10.0 miCalm0.00 inRainLight Rain
6:51 AM53.1 °F46.0 °F77 %30.22 in8.0 miSE (140°)3.5 mph0.00 inOvercast
7:51 AM54.0 °F46.0 °F75 %30.24 in10.0 miVariable4.6 mph0.00 inOvercast
8:51 AM53.1 °F45.0 °F74 %30.24 in10.0 miCalmOvercast
9:51 AM53.1 °F46.9 °F80 %30.24 in8.0 miVariable5.8 mphOvercast
10:51 AM54.0 °F46.0 °F75 %30.23 in10.0 miVariable6.9 mphOvercast
11:51 AM54.0 °F45.0 °F72 %30.23 in10.0 miSouth (170°)6.9 mph19.6 mphOvercast
12:51 PM55.0 °F46.9 °F74 %30.22 in9.0 miVariable5.8 mph17.3 mphOvercast
1:51 PM54.0 °F48.0 °F80 %30.22 in6.0 miVariable3.5 mph0.02 inRainLight Rain
2:51 PM54.0 °F50.0 °F86 %30.21 in10.0 miVariable3.5 mph0.02 inOvercast
3:51 PM55.0 °F48.9 °F80 %30.19 in10.0 miVariable6.9 mphOvercast
4:51 PM55.9 °F46.9 °F72 %30.19 in10.0 miVariable3.5 mphOvercast
5:51 PM57.0 °F45.0 °F64 %30.19 in10.0 miNorthOvercast
6:51 PM55.9 °F44.1 °F64 %30.19 in10.0 miSSE (150°)8.1 mphOvercast
7:51 PM55.9 °F43.0 °F62 %30.20 in10.0 miNorthOvercast
8:51 PM55.0 °F45.0 °F69 %30.22 in10.0 miVariable5.8 mphOvercast
9:51 PM54.0 °F46.9 °F77 %30.24 in10.0 miNorthOvercast
10:16 PM54.0 °F46.9 °F77 %30.25 in10.0 miVariable3.5 mphOvercast
10:51 PM55.0 °F45.0 °F69 %30.22 in10.0 miSE (130°)8.1 mphOvercast
11:47 PM53.6 °F44.6 °F72 %30.25 in10.0 miCalmOvercast
11:51 PM54.0 °F45.0 °F72 %30.23 in10.0 miNorthOvercast
Hourly data recorded from KNYC, located miles away from New York, New York







STORIES FROM OUR PARTNERS